SCP
-0 -0 0 0 0 0 0 0 0 1 0 0 0 0 0 0 0 0 0 0 0 0 0 0 0 0 0 0 0 0 0 0
0 0 0 0 0 1 1 0 0 0 0 0 0 0 0 0 0 0 0 0 0 0 0 0 0 0 0 0 0 0 0 0
0 0 0 0 0 1 0 0 0 0 0 0 0 0 0 0 0 0 0 0 0 0 0 0 0 0 0 0 0 0 0 0
0 0 0 0 1 1 0 0 0 0 0 0 0 0 0 0 0 0 0 0 0 0 0 0 0 0 0 0 0 0 0 0
0 0 0 0 0 0 0 0 0 0 0 0 0 0 0 0 0 0 0 0 0 0 0 0 0 0 0 0 0 0 0 0
0 1 0 0 0 0 0 0 0 0 0 0 0 0 0 0 0 0 0 0 0 0 0 0 0 0 0 0 0 0 0 0
0 0 0 0 0 0 0 0 0 0 0 0 0 0 0 0 0 0 0 0 0 0 0 0 0 0 0 0 0 0 0 0
0 0 0 0 0 0 0 0 0 0 0 0 0 0 0 0 0 0 0 0 0 0 0 0 0 0 0 0 0 0 0 0
0 0 0 0 0 0 0 0 0 0 0 0 0 0 0 0 0 0 0 0 0 0 0 0 0 0 0 0 0 0 0 0
-0 0 0 0 0 0 0 0 0 0 0 0 0 0 0 0 0 0 0 0 0 0 0 0 0 0 0 0 0 0 0 0
0 0 0 0 0 0 0 0 0 0 0 0 0 0 0 0 0 0 0 0 0 0 0 0 0 0 0 0 0 0 0 0
0 0 0 0 0 0 0 0 0 0 0 0 0 0 0 0 0 0 0 0 0 0 0 0 0 0 0 0 0 0 0 0
0 0 0 0 0 0 0 0 0 0 0 0 0 0 0 0 0 0 0 0 0 0 0 0 0 0 0 0 0 0 0 0
0 0 0 0 0 0 0 0 0 0 0 0 0 0 0 0 0 0 0 0 0 0 0 0 0 0 0 0 0 0 0 0
0 0 0 0 0 0 0 0 0 0 0 0 0 0 0 0 0 0 0 0 0 0 0 0 0 0 0 0 0 0 0 0
0 0 0 0 0 0 0 0 0 0 0 0 0 0 0 0 0 0 0 0 0 0 0 0 0 0 0 0 0 0 0 0
0 0 0 0 0 0 0 0 0 0 0 0 0 0 0 0 0 0 0 0 0 0 0 0 0 0 0 0 0 0 0 0
0 0 0 0 0 0 0 0 0 0 0 0 0 0 0 0 0 0 0 0 0 0 0 0 0 0 0 0 0 0 0 0
0 0 0 0 0 0 0 0 0 0 0 0 0 0 0 0 0 0 0 0 0 0 0 0 0 0 0 0 0 0 0 0
Wind_Speed_500mb
25 24 23 25 27 28 28 34 30 35 29 24 24 20 11 12 8 8 8 3 8 3 10 22 21 18 23 27 33 35 39 46
23 21 22 25 27 28 36 33 28 18 19 18 15 18 17 16 13 11 5 6 12 17 9 15 20 22 26 32 38 40 41 40
24 23 24 25 26 28 24 22 22 19 18 20 18 17 16 16 12 4 6 10 11 9 18 19 22 28 35 36 35 38 34 32
28 27 26 25 27 27 25 24 25 24 25 22 21 20 13 9 2 0 8 8 11 15 20 25 30 33 35 35 33 30 34 33
31 31 30 28 28 28 29 31 31 24 22 20 17 11 11 9 2 4 6 15 18 22 26 30 32 35 35 33 30 29 30 33
38 37 37 36 36 36 34 30 24 23 20 17 12 9 7 4 1 8 12 16 21 25 29 33 37 36 35 33 33 30 30 35
42 42 42 37 35 34 32 29 26 24 22 21 20 15 8 2 6 10 13 20 23 25 28 32 35 37 33 33 32 30 35 36
48 46 40 37 35 33 32 30 28 25 23 20 17 14 11 3 12 12 19 19 22 26 32 33 34 33 34 33 33 36 37 31
46 42 38 36 35 34 32 31 28 26 23 22 13 12 20 7 7 13 15 20 23 30 31 33 32 30 32 40 35 37 32 27
45 41 37 36 35 36 35 33 30 28 25 7 16 20 6 5 9 13 17 20 25 29 31 31 32 31 35 40 39 35 33 34
44 42 39 39 39 38 38 36 34 26 11 12 9 4 8 7 9 16 21 24 26 29 30 32 32 34 36 39 43 46 43 40
46 41 42 41 42 42 42 39 31 17 10 2 14 13 12 10 15 19 21 26 28 30 32 33 32 32 35 40 45 43 43 39
47 44 44 46 48 46 45 39 26 16 13 17 19 16 15 19 21 23 25 28 30 32 34 33 34 35 35 36 45 39 31 28
49 49 49 50 50 48 46 35 25 19 22 20 22 21 21 23 24 26 28 30 32 34 34 33 36 33 41 33 34 29 27 27
52 52 52 51 51 50 46 36 24 19 21 26 25 27 26 26 28 29 30 32 34 34 34 35 36 37 31 27 24 25 25 25
52 53 53 52 52 51 48 38 20 23 28 28 27 27 28 29 31 31 32 33 32 34 35 35 35 34 25 20 24 23 23 23
48 52 53 53 54 52 48 32 28 30 30 28 27 28 28 30 32 33 33 32 34 34 33 31 30 24 27 33 26 18 22 29
45 51 53 52 51 48 49 29 29 30 26 26 27 28 29 31 33 33 34 34 35 34 30 26 23 22 30 26 23 28 24 30
41 45 46 47 45 46 35 30 28 26 22 25 26 27 31 31 31 33 34 35 34 31 29 26 22 26 31 29 26 29 25 27
Wind_Direction_500mb
173 178 181 186 187 182 179 179 196 209 208 227 216 266 200 173 147 180 136 236 269 266 295 295 305 312 308 305 310 309 307 307
185 178 175 180 182 184 199 197 208 201 185 185 184 159 160 165 167 166 194 265 309 308 306 311 312 311 307 310 307 306 307 306
186 184 184 181 182 186 188 176 168 167 166 160 161 168 166 171 169 224 289 305 302 329 308 312 305 309 311 309 303 302 303 307
193 186 181 179 178 174 167 163 159 156 163 161 159 164 167 156 169 334 292 318 326 326 314 309 309 310 307 305 302 295 301 297
190 182 172 164 158 158 162 157 161 163 156 169 174 183 179 168 198 284 316 318 320 316 310 310 308 305 303 301 299 287 298 296
170 165 159 152 150 149 154 156 154 149 152 150 143 144 124 138 308 327 317 310 313 309 308 305 303 301 295 289 287 286 288 295
160 155 153 152 152 153 153 150 148 142 137 127 130 129 127 173 321 322 312 317 313 310 309 307 300 296 294 287 281 276 287 290
163 162 162 161 160 157 155 156 150 143 137 131 122 110 87 32 337 324 329 319 314 315 315 313 306 295 287 279 266 282 290 288
174 174 172 170 168 165 161 164 159 152 141 137 134 313 326 358 299 331 329 319 318 316 315 311 307 296 284 276 270 281 289 276
183 182 181 180 177 174 172 173 170 161 155 205 304 333 336 246 329 327 315 321 319 311 310 308 303 294 284 275 274 283 285 286
190 189 188 188 185 180 177 176 175 172 241 292 352 166 204 257 300 311 322 319 314 310 310 308 302 292 293 287 288 288 287 288
196 196 195 191 187 184 180 178 180 201 255 350 201 203 227 265 290 306 312 309 309 309 308 306 305 298 289 288 284 287 286 283
202 203 199 194 192 189 185 186 190 212 189 262 212 220 241 271 289 297 302 304 306 308 306 303 301 299 295 291 295 290 289 284
208 207 206 201 198 196 195 194 195 198 253 211 220 235 255 271 285 291 297 300 304 305 302 303 300 294 291 296 295 294 288 285
215 212 212 209 206 204 201 199 205 263 209 218 234 246 260 271 281 288 293 296 302 305 304 302 299 299 295 292 294 293 289 289
220 217 216 214 211 209 207 206 237 205 214 228 241 252 264 273 281 287 291 291 302 305 305 301 299 290 282 273 298 293 286 294
221 220 220 218 215 213 211 221 217 221 220 233 245 258 267 276 283 287 291 292 298 302 301 300 296 296 278 298 298 279 295 298
225 223 223 221 219 216 214 226 223 216 227 242 255 268 276 283 287 290 289 289 297 300 299 302 299 292 285 298 295 300 304 300
231 227 225 223 223 213 219 220 217 220 230 256 261 276 285 287 289 289 289 290 292 293 290 289 286 271 271 292 299 312 304 302
Wind_Speed_850mb
25 24 23 25 27 28 28 34 30 35 29 24 24 20 11 12 8 8 8 3 8 3 10 22 21 18 23 27 33 35 39 46
23 21 22 25 27 28 36 33 28 18 19 18 15 18 17 16 13 11 5 6 12 17 9 15 20 22 26 32 38 40 41 40
24 23 24 25 26 28 24 22 22 19 18 20 18 17 16 16 12 4 6 10 11 9 18 19 22 28 35 36 35 38 34 32
28 27 26 25 27 27 25 24 25 24 25 22 21 20 13 9 2 0 8 8 11 15 20 25 30 33 35 35 33 30 34 33
31 31 30 28 28 28 29 31 31 24 22 20 17 11 11 9 2 4 6 15 18 22 26 30 32 35 35 33 30 29 30 33
38 37 37 36 36 36 34 30 24 23 20 17 12 9 7 4 1 8 12 16 21 25 29 33 37 36 35 33 33 30 30 35
42 42 42 37 35 34 32 29 26 24 22 21 20 15 8 2 6 10 13 20 23 25 28 32 35 37 33 33 32 30 35 36
48 46 40 37 35 33 32 30 28 25 23 20 17 14 11 3 12 12 19 19 22 26 32 33 34 33 34 33 33 36 37 31
46 42 38 36 35 34 32 31 28 26 23 22 13 12 20 7 7 13 15 20 23 30 31 33 32 30 32 40 35 37 32 27
45 41 37 36 35 36 35 33 30 28 25 7 16 20 6 5 9 13 17 20 25 29 31 31 32 31 35 40 39 35 33 34
44 42 39 39 39 38 38 36 34 26 11 12 9 4 8 7 9 16 21 24 26 29 30 32 32 34 36 39 43 46 43 40
46 41 42 41 42 42 42 39 31 17 10 2 14 13 12 10 15 19 21 26 28 30 32 33 32 32 35 40 45 43 43 39
47 44 44 46 48 46 45 39 26 16 13 17 19 16 15 19 21 23 25 28 30 32 34 33 34 35 35 36 45 39 31 28
49 49 49 50 50 48 46 35 25 19 22 20 22 21 21 23 24 26 28 30 32 34 34 33 36 33 41 33 34 29 27 27
52 52 52 51 51 50 46 36 24 19 21 26 25 27 26 26 28 29 30 32 34 34 34 35 36 37 31 27 24 25 25 25
52 53 53 52 52 51 48 38 20 23 28 28 27 27 28 29 31 31 32 33 32 34 35 35 35 34 25 20 24 23 23 23
48 52 53 53 54 52 48 32 28 30 30 28 27 28 28 30 32 33 33 32 34 34 33 31 30 24 27 33 26 18 22 29
45 51 53 52 51 48 49 29 29 30 26 26 27 28 29 31 33 33 34 34 35 34 30 26 23 22 30 26 23 28 24 30
41 45 46 47 45 46 35 30 28 26 22 25 26 27 31 31 31 33 34 35 34 31 29 26 22 26 31 29 26 29 25 27
Wind_Direction_850mb
173 178 181 186 187 182 179 179 196 209 208 227 216 266 200 173 147 180 136 236 269 266 295 295 305 312 308 305 310 309 307 307
185 178 175 180 182 184 199 197 208 201 185 185 184 159 160 165 167 166 194 265 309 308 306 311 312 311 307 310 307 306 307 306
186 184 184 181 182 186 188 176 168 167 166 160 161 168 166 171 169 224 289 305 302 329 308 312 305 309 311 309 303 302 303 307
193 186 181 179 178 174 167 163 159 156 163 161 159 164 167 156 169 334 292 318 326 326 314 309 309 310 307 305 302 295 301 297
190 182 172 164 158 158 162 157 161 163 156 169 174 183 179 168 198 284 316 318 320 316 310 310 308 305 303 301 299 287 298 296
170 165 159 152 150 149 154 156 154 149 152 150 143 144 124 138 308 327 317 310 313 309 308 305 303 301 295 289 287 286 288 295
160 155 153 152 152 153 153 150 148 142 137 127 130 129 127 173 321 322 312 317 313 310 309 307 300 296 294 287 281 276 287 290
163 162 162 161 160 157 155 156 150 143 137 131 122 110 87 32 337 324 329 319 314 315 315 313 306 295 287 279 266 282 290 288
174 174 172 170 168 165 161 164 159 152 141 137 134 313 326 358 299 331 329 319 318 316 315 311 307 296 284 276 270 281 289 276
183 182 181 180 177 174 172 173 170 161 155 205 304 333 336 246 329 327 315 321 319 311 310 308 303 294 284 275 274 283 285 286
190 189 188 188 185 180 177 176 175 172 241 292 352 166 204 257 300 311 322 319 314 310 310 308 302 292 293 287 288 288 287 288
196 196 195 191 187 184 180 178 180 201 255 350 201 203 227 265 290 306 312 309 309 309 308 306 305 298 289 288 284 287 286 283
202 203 199 194 192 189 185 186 190 212 189 262 212 220 241 271 289 297 302 304 306 308 306 303 301 299 295 291 295 290 289 284
208 207 206 201 198 196 195 194 195 198 253 211 220 235 255 271 285 291 297 300 304 305 302 303 300 294 291 296 295 294 288 285
215 212 212 209 206 204 201 199 205 263 209 218 234 246 260 271 281 288 293 296 302 305 304 302 299 299 295 292 294 293 289 289
220 217 216 214 211 209 207 206 237 205 214 228 241 252 264 273 281 287 291 291 302 305 305 301 299 290 282 273 298 293 286 294
221 220 220 218 215 213 211 221 217 221 220 233 245 258 267 276 283 287 291 292 298 302 301 300 296 296 278 298 298 279 295 298
225 223 223 221 219 216 214 226 223 216 227 242 255 268 276 283 287 290 289 289 297 300 299 302 299 292 285 298 295 300 304 300
231 227 225 223 223 213 219 220 217 220 230 256 261 276 285 287 289 289 289 290 292 293 290 289 286 271 271 292 299 312 304 302